Terug naar catalogus

E3TESTER

ActiefWetenschapSSO
NORAD 66662·PAYLOAD·🇰🇷 South Korea

Gelanceerd Nov 26, 2025 vanaf Naro Space Center

Loading…

Volgende Passages (komende 24 uur)

TLE

VersSource: Space-Track

Epoch: Sep 13, 2026, 18:05 UTC

1 66662U 25274N   26256.75362771  .00001935  00000-0  18423-3 0  9994
2 66662  97.7486 185.1092 0016444  84.4220 275.8875 14.94471660 43465

Volg E3TESTER in realtime met AllMySat

Download on the App Store